EZY7187 LEPA-LIPZ

Flight info

Callsign EZY7187
Flight time N/A
Altitude 36000
Route MEROS DCT ZETCO DCT GURPA DCT SPEZI DCT UVOKI DCT OTGIG
Aircraft A320/M-SDE3FGHIRWY/LB1

Departure

Time 2026-05-06 16:56
Airport Palma de Mallorca Airport (LEPA)

Arrival

Time N/A
Airport Venice Marco Polo Airport (LIPZ)
Time Latitude Longitude Altitude Speed Heading
2026-05-06 16:34 39.54797 2.73606 32 ft 0 kts 60°
2026-05-06 16:48 39.54796 2.73603 34 ft 2 kts 60°
2026-05-06 16:48 39.54787 2.73584 34 ft 2 kts 60°
2026-05-06 16:48 39.54778 2.73566 32 ft 2 kts 76°
2026-05-06 16:48 39.54776 2.73544 33 ft 2 kts 95°
2026-05-06 16:49 39.54780 2.73523 31 ft 2 kts 128°
2026-05-06 16:49 39.54784 2.73516 32 ft 0 kts 140°
2026-05-06 16:50 39.54766 2.73535 34 ft 12 kts 145°
2026-05-06 16:51 39.54666 2.73612 35 ft 11 kts 153°
2026-05-06 16:51 39.54597 2.73637 35 ft 9 kts 160°
2026-05-06 16:51 39.54546 2.73607 36 ft 9 kts 231°
2026-05-06 16:51 39.54490 2.73494 36 ft 17 kts 239°
2026-05-06 16:52 39.54430 2.73365 37 ft 17 kts 238°
2026-05-06 16:52 39.54370 2.73238 38 ft 16 kts 238°
2026-05-06 16:52 39.54313 2.73123 39 ft 14 kts 235°
2026-05-06 16:52 39.54263 2.73028 39 ft 12 kts 235°
2026-05-06 16:53 39.54221 2.72950 40 ft 9 kts 233°
2026-05-06 16:53 39.54173 2.72943 40 ft 7 kts 142°
2026-05-06 16:53 39.54155 2.72990 40 ft 5 kts 112°
2026-05-06 16:53 39.54152 2.73026 40 ft 3 kts 86°
2026-05-06 16:54 39.54152 2.73032 40 ft 0 kts 86°
2026-05-06 16:54 39.54151 2.73086 40 ft 17 kts 94°
2026-05-06 16:54 39.54159 2.73247 39 ft 19 kts 64°
2026-05-06 16:54 39.54241 2.73422 36 ft 38 kts 58°
2026-05-06 16:55 39.54397 2.73751 34 ft 87 kts 58°
2026-05-06 16:55 39.54820 2.74646 31 ft 144 kts 58°
2026-05-06 16:55 39.55415 2.75883 249 ft 171 kts 56°
2026-05-06 16:55 39.56083 2.77318 531 ft 198 kts 58°
2026-05-06 16:56 39.56792 2.78895 989 ft 211 kts 60°
2026-05-06 16:56 39.57533 2.80538 994 ft 209 kts 59°
2026-05-06 16:56 39.58275 2.82151 1462 ft 209 kts 59°
2026-05-06 16:56 39.59032 2.83755 2053 ft 213 kts 59°
2026-05-06 16:57 39.59830 2.85398 2530 ft 219 kts 59°
2026-05-06 16:57 39.60658 2.87052 2777 ft 219 kts 58°
2026-05-06 16:57 39.61506 2.88695 3020 ft 219 kts 58°
2026-05-06 16:57 39.62329 2.90387 3572 ft 223 kts 63°
2026-05-06 16:58 39.63092 2.92235 4015 ft 244 kts 64°
2026-05-06 16:58 39.63899 2.94287 4481 ft 264 kts 65°
2026-05-06 16:58 39.64767 2.96422 5221 ft 271 kts 58°
2026-05-06 16:58 39.65921 2.98389 6011 ft 276 kts 51°
2026-05-06 16:59 39.67132 3.00346 6799 ft 281 kts 50°
2026-05-06 16:59 39.68368 3.02340 7567 ft 285 kts 50°
2026-05-06 16:59 39.69619 3.04358 8364 ft 289 kts 50°
2026-05-06 16:59 39.70889 3.06404 9161 ft 292 kts 50°
2026-05-06 17:00 39.72174 3.08474 9929 ft 296 kts 50°
2026-05-06 17:00 39.73489 3.10594 10394 ft 311 kts 50°
2026-05-06 17:00 39.74897 3.12870 10598 ft 334 kts 50°
2026-05-06 17:00 39.76382 3.15271 11077 ft 346 kts 50°
2026-05-06 17:01 39.77909 3.17741 11656 ft 354 kts 50°
2026-05-06 17:01 39.79463 3.20256 12303 ft 359 kts 50°
2026-05-06 17:01 39.81037 3.22804 12949 ft 365 kts 50°
2026-05-06 17:01 39.82635 3.25394 13590 ft 370 kts 50°
2026-05-06 17:02 39.84256 3.28024 14168 ft 375 kts 50°
2026-05-06 17:02 39.85895 3.30690 14748 ft 379 kts 50°
2026-05-06 17:02 39.87548 3.33384 15325 ft 383 kts 50°
2026-05-06 17:02 39.89223 3.36116 15900 ft 387 kts 50°
2026-05-06 17:03 39.90915 3.38874 16460 ft 392 kts 50°
2026-05-06 17:03 39.92626 3.41661 17034 ft 395 kts 50°
2026-05-06 17:03 39.94351 3.44473 17600 ft 399 kts 50°
2026-05-06 17:03 39.96096 3.47319 18159 ft 403 kts 50°
2026-05-06 17:04 39.97856 3.50192 18654 ft 407 kts 50°
2026-05-06 17:04 39.99632 3.53105 19101 ft 412 kts 50°
2026-05-06 17:04 40.01426 3.56049 19577 ft 416 kts 50°
2026-05-06 17:04 40.03239 3.59022 20063 ft 420 kts 50°
2026-05-06 17:05 40.05063 3.62013 20543 ft 424 kts 50°
2026-05-06 17:05 40.06908 3.65038 21029 ft 427 kts 50°
2026-05-06 17:05 40.08766 3.68088 21497 ft 431 kts 50°
2026-05-06 17:05 40.10641 3.71170 21980 ft 435 kts 50°
2026-05-06 17:06 40.12530 3.74281 22461 ft 439 kts 50°
2026-05-06 17:06 40.14436 3.77418 22933 ft 442 kts 50°
2026-05-06 17:06 40.16365 3.80594 23392 ft 446 kts 50°
2026-05-06 17:06 40.18276 3.83745 23765 ft 449 kts 50°
2026-05-06 17:07 40.20226 3.86970 24134 ft 453 kts 50°
2026-05-06 17:07 40.22185 3.90221 24485 ft 456 kts 50°
2026-05-06 17:07 40.24157 3.93494 24839 ft 459 kts 50°
2026-05-06 17:07 40.26144 3.96792 25190 ft 462 kts 50°
2026-05-06 17:08 40.28143 4.00116 25530 ft 465 kts 50°
2026-05-06 17:08 40.30151 4.03458 25865 ft 468 kts 50°
2026-05-06 17:08 40.32174 4.06826 26193 ft 471 kts 50°
2026-05-06 17:08 40.34202 4.10205 26515 ft 474 kts 50°
2026-05-06 17:09 40.36246 4.13612 26833 ft 477 kts 50°
2026-05-06 17:09 40.38274 4.17000 27143 ft 479 kts 50°
2026-05-06 17:09 40.40338 4.20449 27468 ft 482 kts 51°
2026-05-06 17:09 40.42420 4.23922 27743 ft 485 kts 50°
2026-05-06 17:10 40.44515 4.27421 28037 ft 488 kts 51°